Regional Weather Roundup
Issued by NWS

Home | Current Version | Previous Version | Text Only | Print | Product List | Glossary Off
Versions: 1 2 3 4 5 6 7 8 9 10 11 12 13 14 15 16 17 18 19 20 21 22 23 24 25 26 27 28 29 30 31 32 33 34 35 36 37 38 39 40 41 42 43 44 45 46 47 48 49 50

000
ASUS43 KIND 292009
RWRIN

WEATHER ROUNDUP FOR INDIANA
NATIONAL WEATHER SERVICE INDIANAPOLIS IN
400 PM EDT WED JUL 29 2015

NOTE: "FAIR" INDICATES FEW OR NO CLOUDS BELOW 12,000 FEET WITH NO
SIGNIFICANT WEATHER AND/OR OBSTRUCTIONS TO VISIBILITY.

* - STATION DOES NOT REPORT WEATHER SUCH AS PRECIPITATION OR FOG.

+ - STATION NOT QUALITY CONTROLLED BY THE NATIONAL WEATHER SERVICE.
    USE DATA WITH CAUTION...ESPECIALLY DEWPOINT AND RELATIVE
    HUMIDITY OBSERVATIONS.

INZ001>003-010>013-019-020-292100-
NORTHWEST INDIANA

CITY           SKY/WX    TMP DP  RH WIND       PRES   REMARKS
GARY /AIRPORT/ MOSUNNY   82  64  54 NE12      29.98S
KNOX *+        MOSUNNY   82  70  65 NW7       29.96F
LA PORTE +     MOSUNNY   86  67  53 NW9       29.98F
MICHIGAN CITY+ SUNNY     81  57  44 N10       29.98F
MONTICELLO +   PTSUNNY   84  78  81 W7        29.96F
RENSSELAER +   PTSUNNY   86  73  66 W10G16    29.97F
VALPARAISO     MOSUNNY   85  68  56 NW10      29.97F

$$

LMZ046-743>745-292100-
SOUTHERN LAKE MICHIGAN

STATION/POSITION TIME  TEMP    WIND        PRES    WAVE
                       AIR SEA DIR/SP/G            HT
                 (UTC) (F)     (DEG/KT/KT) (MB)    (FT)
BURNS HARBOR     1900   79      50/  6/  7 1015.9F
MICHIGAN CITY    1900   79     270/  1/  2   N/A
5NW MICH CITY    2000   77 77  360/  4/  6   N/A     1

$$

INZ004-005-014>016-021>024-292100-
NORTH CENTRAL INDIANA

CITY           SKY/WX    TMP DP  RH WIND       PRES   REMARKS
ELKHART        MOSUNNY   84  66  54 NW12      29.96F
GOSHEN         MOSUNNY   85  74  69 NW15      29.95F
LOGANSPORT +   PTSUNNY   86  70  58 W7        29.96F
PERU/GRISSOM   PTSUNNY   86  75  70 W10       29.95F
ROCHESTER +    MOSUNNY   86  79  79 NW10      29.96S HX  99
SOUTH BEND     SUNNY     85  66  53 W14       29.97F
WARSAW +       MOSUNNY   86  73  66 NW15      29.95F

$$

INZ006>009-017-018-025>027-292100-
NORTHEAST INDIANA

CITY           SKY/WX    TMP DP  RH WIND       PRES   REMARKS
ANGOLA *+      PTSUNNY   88  82  84 NW13      29.93S HX 108
AUBURN +       PTSUNNY   88  72  58 W9G18     29.93F
FORT WAYNE     CLOUDY    88  75  65 W12       29.94F HX  97
HUNTINGTON +   CLOUDY    86  75  69 W9        29.94F HX  95

$$

INZ028-029-035-036-043>045-051>053-292100-
WEST CENTRAL INDIANA

CITY           SKY/WX    TMP DP  RH WIND       PRES   REMARKS
CRAWFORDSVL +  CLOUDY    82  73  75 W10         N/A
GREENCASTLE +  CLOUDY    84  70  61 W7        29.99F
LAFAYETTE      PTSUNNY   84  75  74 W10       29.96F
TERRE HAUTE    CLOUDY    86  77  74 NW7       29.98S HX  97

$$

INZ030>032-037>040-046>048-054>057-064-065-292100-
CENTRAL INDIANA

CITY           SKY/WX    TMP DP  RH WIND       PRES   REMARKS
ANDERSON       MOSUNNY   86  68  54 W12G17    29.97F
FRANKFORT +    CLOUDY    86  78  77 SW7       30.00F HX  98
INDIANAPOLIS   PTSUNNY   88  72  58 W13       29.96F
-EAGLE CREEK   CLOUDY    85  74  69 W12       29.96F
KOKOMO *+      PTSUNNY   88  75  66 NW14G20   29.96F HX  97
MARION +       PTSUNNY   86  74  68 W8        29.96F HAZE
MT COMFORT *+  MOSUNNY   90  73  58 W14       29.97F HX  98
SHELBYVILLE    MOSUNNY   92  76  59 W12       29.94F HX 104
ZIONSVILLE +   CLOUDY    85  72  65 W10       29.98F

$$

INZ033-034-041-042-049-050-058-059-292100-
EAST CENTRAL INDIANA

CITY           SKY/WX    TMP DP  RH WIND       PRES   REMARKS
MUNCIE         PTSUNNY   87  74  64 W12       29.95F HX  95

$$

INZ060-061-067>069-081>083-085>088-292100-
SOUTHWEST INDIANA

CITY           SKY/WX    TMP DP  RH WIND       PRES   REMARKS
EVANSVILLE     PTSUNNY   94  78  60 NW5       29.98S HX 110
HUNTINGBURG *+ PTSUNNY   91  79  66 W8        29.97S HX 107
WASHINGTON +   PTSUNNY   90  77  66 W6        29.96S HX 102

$$

INZ062-063-066-070>080-084-089>092-292100-
SOUTH CENTRAL AND SOUTHEAST INDIANA

CITY           SKY/WX    TMP DP  RH WIND       PRES   REMARKS
BLOOMINGTON    PTSUNNY   86  78  77 VRB6      29.98R HX  98
MADISON *+     MOSUNNY   91  68  46 W5        29.98F HX  95
NORTH VERNON + SUNNY     93  72  49 SW6       29.96F HX 100
SEYMOUR +      PTSUNNY   95  75  52 W7        29.94F HX 107

$$



USA.gov is the U.S. government's official web portal to all federal, state and local government web resources and services.